View from above orbital plane
|
View from above satellite
|
Ground track
|
The orbit data is extracted from the following two-line orbital elements,
1 00051U 60009C 21108.69865958 -.00000112 00000-0 -25967-3 0 9997
2 00051 47.2105 123.0699 0106894 349.2746 10.5767 12.18274301701306
Epoch (UTC): | 18 April 2021 16:46:04 |
Eccentricity: | 0.0106894 |
inclination: | 47.2105° |
perigee height: | 1515 km |
apogee height: | 1685 km |
right ascension of ascending node: | 123.0699° |
argument of perigee: | 349.2746° |
revolutions per day: | 12.18274301 |
mean anomaly at epoch: | 10.5767° |
orbit number at epoch: | 70130 |
The dashed part of the orbit path shows where the satellite is in the earth's shadow,
|
|